Regional Weather Roundup
Issued by NWS

Home | Current Version | Previous Version | Graphics & Text | Print | Product List | Glossary Off
Versions: 1 2 3 4 5 6 7 8 9 10 11 12 13 14 15 16 17 18 19 20 21 22 23 24 25 26 27 28 29 30 31 32 33 34 35 36 37 38 39 40 41 42 43 44 45 46 47 48 49 50

872
ASUS43 KDTX 220901
RWRMI
MICHIGAN HOURLY REGIONAL WEATHER ROUNDUP
NATIONAL WEATHER SERVICE DETROIT/PONTIAC MI
500 AM EDT MON MAY 22 2017

NOTE: "FAIR" INDICATES FEW OR NO CLOUDS BELOW 12,000 FEET WITH NO
SIGNIFICANT WEATHER AND/OR OBSTRUCTION TO VISIBILITY.

MIZ047>049-052>055-059>063-066>070-074>076-081>083-221000-
SOUTHEAST LOWER MICHIGAN

CITY           SKY/WX    TMP DP  RH WIND       PRES   REMARKS
ADRIAN         CLOUDY    51  40  65 W12       30.00S
ALMA           CLOUDY    49  42  74 SW7       29.93S
ANN ARBOR      CLOUDY    51  40  65 W14       29.97S
BAD AXE        CLOUDY    51  44  75 SW14      29.92R
CARO           CLOUDY    50  43  74 SW9       29.93R
DETROIT CITY   CLOUDY    56  47  71 W10G17    29.95S
DETROIT        CLOUDY    55  45  68 W14       29.97S
FLINT          CLOUDY    50  41  71 SW7       29.96R
GROSSE ILE     CLOUDY    56  47  72 W8G17     29.96R
HILLSDALE      CLOUDY    48  37  66 SW5       29.99S
HOWELL         CLOUDY    50  38  64 SW12      29.97S

CITY           SKY/WX    TMP DP  RH WIND       PRES   REMARKS
JACKSON        CLOUDY    50  39  66 SW8       29.98S
LAMBERTVILLE   PTCLDY    50  40  68 W7        29.99S
LANSING        CLOUDY    50  39  66 SW12      29.96S
LAPEER         CLOUDY    51  42  71 W9G17     29.95S
MASON          CLOUDY    50  40  68 SW6       29.97S
MONROE         CLOUDY    53  45  72 SW15      29.97S
MT. CLEMENS    CLOUDY    56  49  77 W8        29.93S
PONTIAC        CLOUDY    51  41  68 W16G23    29.96R
PORT HOPE        N/A     53  43  68 SW9G16    29.89R
PORT HURON     CLOUDY    54  48  82 CALM      29.93F
TRI CITIES     CLOUDY    51  42  71 SW15      29.93R
MIDLAND        CLOUDY    51  40  67 SW8       29.91S
TROY           CLOUDY    55  44  68 W10G16    29.97S
SAGINAW HB     CLOUDY    52  37  58 SW10      29.93S
$$
MIZ043>046-050>051-056>058-064>065-071>073-077>080-221000-
SOUTHWEST LOWER MICHIGAN

CITY           SKY/WX    TMP DP  RH WIND       PRES   REMARKS
BATTLE CREEK   CLOUDY    50  42  74 SW12      29.98S
BENTON HARBOR  CLOUDY    52  42  69 W16       29.99S
BIG RAPIDS     CLOUDY    46  42  85 SW7       29.89S
COLDWATER      CLOUDY    50  41  71 SW10      30.00R
FREMONT        CLOUDY    48  42  79 SW9G16    29.91S
HOLLAND        CLOUDY    50  42  74 W17G25    29.97R
GRAND RAPIDS   CLOUDY    50  43  77 W15G24    29.95R
IONIA          CLOUDY    50  41  71 SW13      29.94S
KALAMAZOO      CLOUDY    51  40  65 SW12      29.99R
LUDINGTON      CLOUDY    46  43  90 SW12G18   29.88S
MARSHALL       CLOUDY    50  40  69 SW8       29.98S
MOUNT PLEASANT CLOUDY    49  41  73 SW9       29.91S
MUSKEGON       CLOUDY    49  43  80 SW15      29.93S
SOUTH HAVEN    CLOUDY    51  43  76 W14G21    29.98S
$$
MIZ016>042-221000-
NORTHERN LOWER MICHIGAN

CITY           SKY/WX    TMP DP  RH WIND       PRES   REMARKS
ALPENA         CLOUDY    52  43  71 SW6       29.84S
BEAVER ISLAND  CLOUDY    46  44  91 SW13G18   29.79F
BELLAIRE       MIX PCPN  47  45  90 S6        29.83F
CADILLAC       LGT RAIN  45  44  97 SW13      29.85F
CHARLEVOIX     CLOUDY    48  45  91 SW8       29.84F
FRANKFORT      DRIZZLE   46  42  88 SW8       29.85S
GAYLORD        LGT RAIN  47  42  83 SW8       29.83F
GRAYLING       CLOUDY    46  44  94 SW6       29.86S
HARBOR SPRINGS CLOUDY    47  46  95 SW7       29.81F
HOUGHTON LAKE  CLOUDY    47  42  83 SW14G20   29.87S
MANISTEE       LGT RAIN  47  44  90 SW9G16    29.86F
OSCODA         CLOUDY    53  40  62 SW15      29.86S
PELLSTON       CLOUDY    48  44  86 SW8       29.82S
ROGERS CITY    CLOUDY    50  44  80 SW10      29.83F
TRAVERSE CITY  CLOUDY    48  44  86 SW7       29.82F
$$
MIZ007>008-015-221000-
EASTERN UPPER MICHIGAN

CITY           SKY/WX    TMP DP  RH WIND       PRES   REMARKS
KINROSS        CLOUDY    46  45  96 SW7G17    29.79F
MACKINAC ISLAN DRIZZLE   47  47 100 S8        29.80S
NEWBERRY       CLOUDY    45  44  97 S9        29.76S
S. S. MARIE    CLOUDY    49  45  86 S10       29.77F
MUNISING         N/A     50  47  89 S7        29.73S
$$
MIZ004>006-011>014-085-221000-
CENTRAL UPPER MICHIGAN

CITY           SKY/WX    TMP DP  RH WIND       PRES   REMARKS
MANISTIQUE     CLOUDY    45  42  90 SW7       29.76S
ESCANABA       CLOUDY    48  46  93 SW7       29.76S
MENOMINEE      CLOUDY    48  45  89 VRB6      29.80S
SAWYER-GWINN   LGT RAIN  46  45  95 SW6       29.73S
$$
MIZ001>003-009>011-084-221000-
WESTERN UPPER MICHIGAN

CITY           SKY/WX    TMP DP  RH WIND       PRES   REMARKS
IRON MOUNTAIN  CLOUDY    48  44  86 W9        29.74S
HOUGHTON       CLOUDY    47  44  90 W13       29.70S FOG
COPPER HARBOR    N/A     47  44  90 VRB3      29.69F
IRONWOOD       LGT RAIN  45  44  97 W12       29.76S FOG
$$

ABBREVIATIONS USED IN REMARKS
   TC - TEMPERATURE IN CELSIUS
  WCI - WIND CHILL INDEX
   HX - HEAT INDEX
  VSB - VISIBILITY





USA.gov is the U.S. government's official web portal to all federal, state and local government web resources and services.